sat.trackr.live / text

‹ back to catalog

BEIDOU-2 IGSO-5 (C10)

NORAD 37948 · 2011-073A

PAYLOAD ACTIVE UNKNOWN

§ Identity

Operator
Country
PRC
Launch date
2011-12-01
Launch site
XICLF
Launch vehicle
Mass (kg)
RCS (m²)
12.59

Purposes: comms, nav

External: N2YO · Heavens-Above · Gunter

§ Orbital elements

Epoch: 2026-05-24T20:12:21.568320Z

Period
1,436.34 min
Inclination
47.7216°
Eccentricity
0.0112230
Mean motion
1.00254466 rev/d
Perigee alt
35,318.2 km
Apogee alt
36,264.7 km
Semi-major
42,169.6 km
B*
0.0000e+0
RAAN
271.8324°
Arg perigee
220.7905°
Mean anomaly
144.7369°
Rev number
5,290

§ Raw data

BEIDOU-2 IGSO-5 (C10)1 37948U 11073A   26144.84191630 -.00000227  00000+0  00000+0 0  99922 37948  47.7216 271.8324 0112230 220.7905 144.7369  1.00254466 52909

JSON: /api/v1/satellites/37948 · /tle

For live sub-satellite position, see the globe view (requires WebGL).

§ Visibility from observer

Set your observer location to see the next 7 days of passes ≥ 10°. The values pass through the URL so the page stays shareable.

No JS? Fill the form by hand. The geolocation button needs JavaScript.